Location: All Nations United Methodist Church
(33.0215°N, 96.7483°W)
Time: 15:40:26
(UTC+00:00)

Cosmos 1703 - Pass Details

Date: 24 January 2021
Orbit: 524 x 538 km, 82.5° (Epoch: 07 March)

Event Time Altitude Azimuth Distance (km) Brightness Sun altitude
Exits shadow 12:26:18 - 345° (NNW) 2,487 6.4 -12.9°
Reaches altitude 10° 12:28:04 10° 339° (NNW) 1,778 5.6 -12.5°
Maximum altitude 12:31:47 44° 267° (W) 738 3.5 -11.7°
Drops below altitude 10° 12:35:30 10° 195° (SSW) 1,774 5.9 -11.0°
Sets 12:37:42 0° 188° (S) 2,662 6.9 -10.6°
